Location: Krakow
(50.0212°N, 19.9423°E)
Time: 22:20:22
(UTC+02:00)

NOAA 18 - Pass Details

Date: 14 August 2024
Orbit: 837 x 859 km, 98.9° (Epoch: 19 September)

Event Time Altitude Azimuth Distance (km) Brightness Sun altitude
Exits shadow 00:00:20 19° 243° (WSW) 1,928 6.9 -24.9°
Maximum altitude 00:02:10 22° 269° (W) 1,779 6.9 -25.0°
Drops below altitude 10° 00:06:26 10° 320° (NW) 2,505 8.4 -25.1°
Sets 00:09:23 0° 335° (NNW) 3,447 9.6 -25.2°
